| time (UTC) | temp F | wind direction | speed MPH | gust MPH | rain 1hr in | rain 24hr in | rain mn in | humidity % | barometer mb |
| 20260506231507 | 59 | 289 | 0.0 | 0.0 | 0.00 | 0.00 | 0.32 | 99 | 999.7 |
| 20260506230007 | 59 | 119 | 0.0 | 0.0 | 0.00 | 0.00 | 0.26 | 99 | 999.3 |
| 20260506224508 | 60 | 119 | 0.0 | 0.0 | 0.00 | 0.00 | 0.21 | 99 | 999.4 |
| 20260506223005 | 60 | 181 | 0.0 | 0.0 | 0.00 | 0.00 | 0.21 | 99 | 999.5 |
| 20260506221504 | 60 | 181 | 0.0 | 0.0 | 0.00 | 0.00 | 0.20 | 99 | 999.7 |
| 20260506220010 | 60 | 229 | 0.0 | 0.0 | 0.00 | 0.00 | 0.17 | 99 | 999.7 |
| 20260506214504 | 60 | 281 | 0.0 | 0.0 | 0.00 | 0.00 | 0.17 | 99 | 1000.0 |
| 20260506213003 | 61 | 316 | 0.0 | 0.0 | 0.00 | 0.00 | 0.16 | 99 | 1000.1 |
| 20260506211501 | 61 | 309 | 0.0 | 0.0 | 0.00 | 0.00 | 0.16 | 99 | 1000.2 |
| 20260506210000 | 60 | 293 | 1.0 | 0.0 | 0.00 | 0.00 | 0.16 | 98 | 1000.4 |
| 20260506204601 | 60 | 295 | 1.0 | 0.0 | 0.00 | 0.00 | 0.16 | 98 | 1000.4 |
| 20260506203100 | 60 | 307 | 1.0 | 0.0 | 0.00 | 0.00 | 0.16 | 98 | 1000.4 |
| 20260506201559 | 60 | 343 | 1.0 | 0.0 | 0.00 | 0.00 | 0.15 | 98 | 1000.5 |
| 20260506200058 | 60 | 304 | 2.0 | 0.0 | 0.00 | 0.00 | 0.15 | 98 | 1000.5 |
| 20260506194558 | 60 | 321 | 2.0 | 0.0 | 0.00 | 0.00 | 0.15 | 98 | 1000.6 |
| 20260506193057 | 59 | 164 | 2.0 | 0.0 | 0.00 | 0.00 | 0.15 | 98 | 1000.8 |
| 20260506191556 | 60 | 289 | 2.0 | 0.0 | 0.00 | 0.00 | 0.14 | 98 | 1001.1 |
| 20260506190058 | 60 | 57 | 1.0 | 0.0 | 0.00 | 0.00 | 0.13 | 98 | 1001.1 |
| 20260506184604 | 60 | 294 | 1.0 | 0.0 | 0.00 | 0.00 | 0.11 | 99 | 1001.1 |
| 20260506183054 | 60 | 306 | 0.0 | 0.0 | 0.00 | 0.00 | 0.09 | 99 | 1001.3 |
| 20260506181553 | 60 | 314 | 1.0 | 0.0 | 0.00 | 0.00 | 0.07 | 98 | 1001.6 |
| 20260506180054 | 60 | 355 | 0.0 | 0.0 | 0.00 | 0.00 | 0.06 | 98 | 1001.9 |
| 20260506174552 | 60 | 88 | 0.0 | 0.0 | 0.00 | 0.00 | 0.04 | 97 | 1002.5 |
| 20260506173105 | 60 | 88 | 0.0 | 0.0 | 0.00 | 0.00 | 0.03 | 95 | 1002.3 |
| 20260506171557 | 60 | 325 | 0.0 | 0.0 | 0.00 | 0.00 | 0.02 | 93 | 1002.4 |
| 20260506170059 | 60 | 325 | 0.0 | 0.0 | 0.00 | 0.00 | 0.01 | 90 | 1002.2 |
| 20260506164609 | 60 | 325 | 1.0 | 0.0 | 0.00 | 0.00 | 0.01 | 88 | 1002.4 |
| 20260506163052 | 60 | 157 | 1.0 | 0.0 | 0.00 | 0.00 | 0.01 | 92 | 1002.9 |
| 20260506161551 | 60 | 43 | 0.0 | 0.0 | 0.00 | 0.00 | 0.01 | 94 | 1003.3 |
| 20260506160059 | 60 | 43 | 0.0 | 0.0 | 0.00 | 0.00 | 0.01 | 95 | 1003.5 |
| 20260506154552 | 60 | 43 | 0.0 | 0.0 | 0.00 | 0.00 | 0.00 | 93 | 1003.8 |
| 20260506153046 | 60 | 43 | 0.0 | 0.0 | 0.00 | 0.00 | 0.00 | 90 | 1003.7 |
| 20260506151546 | 61 | 43 | 0.0 | 0.0 | 0.00 | 0.00 | 0.00 | 86 | 1003.9 |
| 20260506150045 | 61 | 43 | 0.0 | 0.0 | 0.00 | 0.00 | 0.00 | 85 | 1003.8 |
| 20260506144545 | 61 | 307 | 1.0 | 0.0 | 0.00 | 0.00 | 0.00 | 85 | 1003.8 |
| 20260506143043 | 60 | 110 | 1.0 | 0.0 | 0.00 | 0.00 | 0.00 | 87 | 1003.7 |
| 20260506141559 | 60 | 164 | 1.0 | 0.0 | 0.00 | 0.00 | 0.00 | 86 | 1003.8 |
| 20260506140040 | 60 | 40 | 1.0 | 0.0 | 0.00 | 0.00 | 0.00 | 90 | 1003.7 |
| 20260506134535 | 59 | 90 | 0.0 | 0.0 | 0.00 | 0.00 | 0.00 | 93 | 1003.9 |
| 20260506133032 | 58 | 252 | 0.0 | 0.0 | 0.00 | 0.00 | 0.00 | 95 | 1004.3 |
| 20260506131535 | 57 | 252 | 0.0 | 0.0 | 0.00 | 0.00 | 0.00 | 96 | 1004.3 |
| 20260506130032 | 57 | 252 | 0.0 | 0.0 | 0.00 | 0.00 | 0.00 | 97 | 1004.3 |
| 20260506124531 | 56 | 252 | 0.0 | 0.0 | 0.00 | 0.00 | 0.00 | 96 | 1004.4 |
| 20260506123038 | 55 | 252 | 0.0 | 0.0 | 0.00 | 0.00 | 0.00 | 96 | 1004.8 |
| 20260506121528 | 56 | 252 | 0.0 | 0.0 | 0.00 | 0.00 | 0.00 | 97 | 1004.8 |
| 20260506120037 | 56 | 252 | 0.0 | 0.0 | 0.00 | 0.00 | 0.00 | 97 | 1005.1 |
| 20260506114528 | 55 | 252 | 0.0 | 0.0 | 0.00 | 0.00 | 0.00 | 97 | 1005.0 |
| 20260506113028 | 55 | 252 | 0.0 | 0.0 | 0.00 | 0.00 | 0.00 | 98 | 1005.1 |
| 20260506111527 | 55 | 252 | 0.0 | 0.0 | 0.00 | 0.00 | 0.00 | 98 | 1005.0 |
| 20260506110027 | 55 | 252 | 0.0 | 0.0 | 0.00 | 0.00 | 0.00 | 98 | 1005.1 |
| 20260506104525 | 55 | 252 | 0.0 | 0.0 | 0.00 | 0.00 | 0.00 | 98 | 1005.0 |
| 20260506103030 | 54 | 252 | 0.0 | 0.0 | 0.00 | 0.00 | 0.00 | 98 | 1004.9 |
| 20260506101525 | 54 | 252 | 0.0 | 0.0 | 0.00 | 0.00 | 0.00 | 98 | 1005.0 |
| 20260506100024 | 54 | 252 | 0.0 | 0.0 | 0.00 | 0.00 | 0.00 | 98 | 1004.6 |
| 20260506094532 | 54 | 252 | 0.0 | 0.0 | 0.00 | 0.00 | 0.00 | 98 | 1004.6 |
| 20260506093039 | 54 | 252 | 0.0 | 0.0 | 0.00 | 0.00 | 0.00 | 97 | 1004.5 |
| 20260506091524 | 54 | 252 | 0.0 | 0.0 | 0.00 | 0.00 | 0.00 | 97 | 1004.7 |
| 20260506090020 | 54 | 252 | 0.0 | 0.0 | 0.00 | 0.00 | 0.00 | 97 | 1004.4 |
| 20260506084518 | 54 | 252 | 0.0 | 0.0 | 0.00 | 0.00 | 0.00 | 96 | 1004.2 |
| 20260506083016 | 55 | 252 | 0.0 | 0.0 | 0.00 | 0.00 | 0.00 | 95 | 1004.0 |
| 20260506081516 | 56 | 252 | 0.0 | 0.0 | 0.00 | 0.00 | 0.00 | 95 | 1004.0 |
| 20260506073011 | 57 | 252 | 0.0 | 0.0 | 0.00 | 0.00 | 0.00 | 99 | 1003.8 |
| 20260506071510 | 56 | 252 | 0.0 | 0.0 | 0.00 | 0.00 | 0.00 | 99 | 1003.3 |
| 20260506061508 | 56 | 252 | 0.0 | 0.0 | 0.00 | 0.00 | 0.00 | 99 | 1003.3 |
| 20260506044512 | 57 | 252 | 0.0 | 0.0 | 0.00 | 0.00 | 0.00 | 99 | 1003.4 |
| 20260506043008 | 57 | 252 | 0.0 | 0.0 | 0.00 | 0.00 | 0.00 | 98 | 1003.6 |
| 20260506041502 | 57 | 252 | 0.0 | 0.0 | 0.00 | 0.00 | 0.00 | 98 | 1003.6 |
| 20260506040005 | 57 | 252 | 0.0 | 0.0 | 0.00 | 0.00 | 0.00 | 98 | 1003.8 |
| 20260506034502 | 57 | 252 | 0.0 | 0.0 | 0.00 | 0.00 | 0.00 | 97 | 1003.8 |
| 20260506033110 | 57 | 252 | 0.0 | 0.0 | 0.00 | 0.00 | 0.00 | 97 | 1003.8 |
| 20260506031602 | 57 | 252 | 0.0 | 0.0 | 0.00 | 0.00 | 0.00 | 97 | 1003.7 |
| 20260506030113 | 56 | 252 | 0.0 | 0.0 | 0.00 | 0.00 | 0.03 | 97 | 1003.5 |
| 20260506024557 | 57 | 252 | 0.0 | 0.0 | 0.00 | 0.00 | 0.03 | 98 | 1003.4 |
| 20260506023056 | 57 | 252 | 0.0 | 0.0 | 0.00 | 0.00 | 0.03 | 98 | 1003.3 |
| 20260506021603 | 58 | 252 | 0.0 | 0.0 | 0.00 | 0.00 | 0.03 | 98 | 1003.0 |
| 20260506020055 | 58 | 252 | 0.0 | 0.0 | 0.00 | 0.00 | 0.03 | 98 | 1003.5 |
| 20260506014601 | 58 | 252 | 0.0 | 0.0 | 0.00 | 0.00 | 0.03 | 98 | 1003.6 |
| 20260506013055 | 58 | 19 | 0.0 | 0.0 | 0.00 | 0.00 | 0.03 | 97 | 1003.6 |
| 20260506011558 | 58 | 318 | 0.0 | 0.0 | 0.00 | 0.00 | 0.03 | 96 | 1003.2 |
| 20260506010058 | 58 | 318 | 0.0 | 0.0 | 0.00 | 0.00 | 0.03 | 95 | 1003.4 |
| 20260506004625 | 58 | 302 | 0.0 | 0.0 | 0.00 | 0.00 | 0.03 | 98 | 1003.4 |
| 20260506003053 | 58 | 144 | 0.0 | 0.0 | 0.00 | 0.00 | 0.03 | 98 | 1003.3 |
| 20260506001552 | 57 | 187 | 0.0 | 0.0 | 0.00 | 0.00 | 0.03 | 97 | 1002.9 |
| 20260506000051 | 57 | 67 | 0.0 | 0.0 | 0.00 | 0.00 | 0.03 | 96 | 1003.1 |
| 20260505234612 | 57 | 323 | 0.0 | 0.0 | 0.00 | 0.00 | 0.03 | 96 | 1002.9 |
| 20260505233051 | 58 | 323 | 0.0 | 0.0 | 0.00 | 0.00 | 0.03 | 96 | 1002.5 |